Station WPTW1 - 9441102 - Westport, WA Image indicating link to RSS feed of recent meteorological observations for station WPTW1


Conditions at WPTW1 as of
(5:36 pm PDT on 04/14/2024)
0036 GMT on 04/15/2024:
     

Click on the graph icon in the table below to see a time series plot of the last five days of that observation.

5-day plot - Wind Direction Wind Direction (WDIR): NW ( 320 deg true )
5-day plot - Wind Speed Wind Speed (WSPD): 20.0 kts
5-day plot - Wind Gust Wind Gust (GST): 22.9 kts
5-day plot - Atmospheric Pressure Atmospheric Pressure (PRES):30.12 in
5-day plot - Water Temperature Water Temperature (WTMP): 53.2 °F
5-day plot - Wind Speed at 10 Meters Wind Speed at 10 meters (WSPD10M): 17.5 kts
5-day plot - Wind Speed at 20 Meters Wind Speed at 20 meters (WSPD20M): 19.4 kts
5-day plot -  Wind Speed, Wind Gust and Atmospheric Pressure Combined plot of Wind Speed, Gust, and Air Pressure
NOS Water Level Observation Network Water Level
Previous observations
TIME
(PDT)
5-day plot - Wind Direction
WDIR
 
5-day plot - Wind Speed
WSPD
kts
5-day plot - Wind Gust
GST
kts
5-day plot - Wave Height
WVHT
ft
5-day plot - Dominant Wave Period
DPD
sec
5-day plot - Average Wave Period
APD
sec
5-day plot - Mean Wave Direction
MWD
 
5-day plot - Atmospheric Pressure
PRES
in
5-day plot - Pressure Tendency
PTDY
in
5-day plot - Air Temperature
ATMP
°F
5-day plot - Water Temperature
WTMP
°F
5-day plot - Dew Point
DEWP
°F
5-day plot - Salinity
SAL
psu
5-day plot - Visibility
VIS
nmi
5-day plot - Tide (above MLLW)
TIDE
ft
2024-04-14 05:30 pm NW 20.0 24.1----30.12-- 53.4----
2024-04-14 05:24 pm NW 21.0 22.9----30.12-- 53.4----
2024-04-14 05:18 pm NW 19.0 22.9----30.11-- 53.6----
2024-04-14 05:12 pm NW 21.0 25.1----30.11-- 53.6----
2024-04-14 05:06 pm NW 21.0 24.1----30.11-- 53.6----
2024-04-14 05:00 pm NW 19.0 24.1----30.11+0.02- 54.0----
2024-04-14 04:54 pm NW 21.0 24.1----30.11-- 54.3----
2024-04-14 04:48 pm NW 20.0 24.1----30.11-- 54.3----
2024-04-14 04:42 pm NW 21.0 22.9----30.11-- 54.5----
2024-04-14 04:36 pm-------30.11- 49.5 54.5----
2024-04-14 04:30 pm-------30.11- 49.5 54.5----
2024-04-14 04:24 pm-------30.11- 49.6 54.5----
2024-04-14 04:18 pm-------30.10- 49.6 54.5----
2024-04-14 04:12 pm-------30.11- 49.6 54.5----
2024-04-14 04:06 pm-------30.10- 49.8 54.5----
2024-04-14 04:00 pm-------30.10+0.02 49.6 54.5----
2024-04-14 03:54 pm-------30.10- 49.6 54.5----
2024-04-14 03:48 pm-------30.10- 49.8 54.5----
2024-04-14 03:42 pm-------30.10- 49.8 54.7----
2024-04-14 03:36 pm NW 20.0 24.1----30.10- 49.5 54.7----
2024-04-14 03:30 pm NW 19.0 24.1----30.10- 49.8 54.7----
2024-04-14 03:24 pm NW 19.0 25.1----30.10- 49.8 54.7----
2024-04-14 03:18 pm NW 20.0 24.1----30.09- 49.6 54.5----
2024-04-14 03:12 pm NW 21.0 24.1----30.09- 49.6 54.5----
2024-04-14 03:06 pmWNW 20.0 22.0----30.09- 49.6 54.5----
2024-04-14 03:00 pm NW 20.0 22.9----30.09- 49.8 54.3----
2024-04-14 02:54 pmWNW 17.1 20.0----30.09- 49.8 54.1----
2024-04-14 02:48 pm NW 15.9 21.0----30.09- 50.0 54.1----
2024-04-14 02:42 pm NW 18.1 20.0----30.09- 49.8 54.1----
2024-04-14 02:36 pm NW 18.1 20.0----30.09-- 54.1----
2024-04-14 02:30 pm NW 18.1 21.0----30.09-- 54.1----
2024-04-14 02:24 pm NW 18.1 20.0----30.09-- 54.1----
2024-04-14 02:18 pm NW 20.0 22.9----30.09-- 54.1----
2024-04-14 02:12 pmWNW 19.0 22.9----30.09-- 54.1----
2024-04-14 02:06 pm NW 15.9 19.0----30.09-- 54.1----
2024-04-14 02:00 pm NW 19.0 21.0----30.09+0.04- 54.1----
2024-04-14 01:54 pm NW 18.1 20.0----30.09-- 54.1----
2024-04-14 01:48 pm NW 18.1 21.0----30.09-- 54.1----
2024-04-14 01:42 pm NW 18.1 20.0----30.09-- 54.0----
2024-04-14 01:36 pm NW 14.0 20.0----30.09-- 54.0----
2024-04-14 01:30 pm NW 17.1 20.0----30.08-- 54.0----
2024-04-14 01:24 pm NW 18.1 19.0----30.08-- 54.0----
2024-04-14 01:18 pm NW 17.1 20.0----30.08-- 54.0----
2024-04-14 01:12 pm NW 15.9 19.0----30.08-- 54.0----
2024-04-14 01:06 pm NW 17.1 20.0----30.08-- 54.0----
2024-04-14 01:00 pm NW 19.0 20.0----30.08+0.04- 54.0----
2024-04-14 12:54 pm NW 15.0 19.0----30.08-- 54.0----
2024-04-14 12:48 pm NW 15.0 19.0----30.07-- 54.0----
2024-04-14 12:42 pm NW 15.0 18.1----30.07-- 54.0----
2024-04-14 12:36 pm NW 15.0 17.1------ 49.6 54.0----
2024-04-14 12:30 pm NW 11.1 15.9------ 50.0 54.0----
2024-04-14 12:24 pm NW 15.0 18.1------ 49.6 54.0----
2024-04-14 12:18 pm NW 15.0 18.1------ 49.6 54.0----
2024-04-14 12:12 pm NW 17.1 19.0------ 49.6 54.0----
2024-04-14 12:06 pm NW 13.0 17.1------ 49.8 54.0----
2024-04-14 12:00 pm NW 15.0 19.0------ 49.6 54.1----
2024-04-14 11:54 am NW 15.0 17.1------ 49.6 54.1----
2024-04-14 11:48 am NW 12.0 15.9------ 50.0 54.1----
2024-04-14 11:42 am NW 9.9 15.9------ 50.0 54.1----
2024-04-14 11:36 am NW 13.0 15.9----30.06- 49.8 54.0----
2024-04-14 11:30 am NW 11.1 15.9----30.06- 50.2 54.0----
2024-04-14 11:24 am NW 13.0 17.1----30.06- 50.2 54.0----
2024-04-14 11:18 amNNW 13.0 17.1----30.06- 50.2 54.0----
2024-04-14 11:12 amNNW 12.0 14.0----30.05- 50.2 53.8----
2024-04-14 11:06 am NW 14.0 17.1----30.05- 49.8 53.8----
2024-04-14 11:00 am NW 13.0 15.0----30.05- 50.4 53.8----
2024-04-14 10:54 amNNW 12.0 14.0----30.05- 50.4 53.8----
2024-04-14 10:48 am N 9.9 15.0----30.05- 50.2 53.8----
2024-04-14 10:42 amNNW 14.0 15.9----30.05- 49.8 53.6----
2024-04-14 10:36 amNNW 12.0 17.1----30.04- 50.0 53.6----
2024-04-14 10:30 amNNW 14.0 17.1----30.04- 49.5 53.6----
2024-04-14 10:24 amNNW 12.0 14.0----30.04- 49.5 53.6----
2024-04-14 10:18 amNNW 12.0 17.1----30.04- 49.6 53.6----
2024-04-14 10:12 amNNW 14.0 15.9----30.04- 49.5 53.6----
2024-04-14 10:06 amNNW 11.1 14.0----30.04- 49.5 53.6----
2024-04-14 10:00 amNNW 13.0 17.1----30.03+0.03 49.1 53.6----
2024-04-14 09:54 amNNW 15.0 17.1----30.03- 49.1 53.6----
2024-04-14 09:48 am NW 13.0 17.1----30.03- 49.3 53.6----
2024-04-14 09:42 amNNW 14.0 18.1----30.03- 49.3 53.6----
2024-04-14 09:36 amNNW 13.0 17.1----30.03-------
2024-04-14 09:30 amNNW 7.0 9.9----30.03-------
2024-04-14 09:24 am N 2.9 6.0----30.03-------
2024-04-14 09:18 am N 2.9 4.1----30.03-------
2024-04-14 09:12 am- 0.0 5.1----30.03-------
2024-04-14 09:06 amNNE 1.9 4.1----30.03-------
2024-04-14 09:00 am NE 1.9 4.1----30.03-------
2024-04-14 08:54 amENE 2.9 4.1----30.03-------
2024-04-14 08:48 amENE 2.9 5.1----30.02-------
2024-04-14 08:42 am E 2.9 5.1----30.02-------
2024-04-14 08:36 am E 2.9 5.1------------
2024-04-14 08:30 amENE 5.1 5.1------------
2024-04-14 08:24 amENE 4.1 5.1------------
2024-04-14 08:18 amENE 5.1 5.1------------
2024-04-14 08:12 amENE 4.1 5.1------------
2024-04-14 08:06 amENE 5.1 6.0------------
2024-04-14 08:00 amENE 6.0 6.0------------
2024-04-14 07:54 amENE 5.1 6.0------------
2024-04-14 07:48 am NE 2.9 5.1------------
2024-04-14 07:42 amENE 1.9 4.1------------
2024-04-14 07:36 amENE 2.9 4.1----30.01- 47.7-----
2024-04-14 07:30 amENE 4.1 6.0----30.01- 47.7-----
2024-04-14 07:24 amENE 1.9 4.1----30.01- 47.7-----
2024-04-14 07:18 am N 1.0 2.9----30.01- 47.7-----
2024-04-14 07:12 amENE 1.9 2.9----30.01- 47.7-----
2024-04-14 07:06 amNNW 1.9 7.0----30.01- 47.5-----
2024-04-14 07:00 am NE 2.9 5.1----30.01+0.04 47.3-----
2024-04-14 06:54 am NE 1.9 2.9----30.01- 47.1-----
2024-04-14 06:48 amENE 1.9 4.1----30.00- 46.9-----
2024-04-14 06:42 am NE 1.0 2.9----30.00- 46.9-----
2024-04-14 06:36 am--------- 46.9 53.2----
2024-04-14 06:30 am--------- 46.9 53.1----
2024-04-14 06:24 am--------- 46.8 53.1----
2024-04-14 06:18 am--------- 46.8 53.1----
2024-04-14 06:12 am--------- 46.9 53.1----
2024-04-14 06:06 am--------- 47.1 52.9----
2024-04-14 06:00 am--------- 47.1 53.1----
2024-04-14 05:54 am--------- 47.3 53.1----
2024-04-14 05:48 am--------- 47.5 53.1----
2024-04-14 05:42 am--------- 47.7 53.1----
2024-04-14 05:36 am N 5.1 6.0------ 47.8 53.1----
2024-04-14 05:30 am N 5.1 7.0------ 47.8 53.1----
2024-04-14 05:24 am N 6.0 8.0------ 48.2 53.1----
2024-04-14 05:18 am N 6.0 13.0------ 48.4 53.1----
2024-04-14 05:12 amNNW 13.0 15.9------ 48.7 53.1----
2024-04-14 05:06 amNNW 11.1 15.0------ 48.9 53.1----
2024-04-14 05:00 amNNW 13.0 15.0------ 48.7 53.1----
2024-04-14 04:54 am NW 13.0 15.9------ 48.9 53.1----
2024-04-14 04:48 amNNW 12.0 15.9------ 48.9 53.2----
2024-04-14 04:42 amNNW 12.0 15.0------ 48.9 53.2----
2024-04-14 04:36 amNNW 14.0 15.0----29.98- 48.9 53.2----
2024-04-14 04:30 amNNW 11.1 13.0----29.98- 48.9 53.1----
2024-04-14 04:24 amNNW 13.0 15.0----29.97- 48.9 53.2----
2024-04-14 04:18 amNNW 13.0 17.1----29.97- 48.7 53.2----
2024-04-14 04:12 amNNW 12.0 15.0----29.97- 48.7 53.1----
2024-04-14 04:06 amNNW 8.9 14.0----29.96- 48.7 53.1----
2024-04-14 04:00 am N 8.9 13.0----29.96+0.00 48.6 53.2----
2024-04-14 03:54 amNNW 8.9 13.0----29.96- 48.6 53.2----
2024-04-14 03:48 amNNW 8.0 12.0----29.96- 48.6 53.2----
2024-04-14 03:42 am N 8.9 12.0----29.96- 48.6 53.2----
2024-04-14 03:36 am N 4.1 9.9----29.96-- 53.2----
2024-04-14 03:30 am N 6.0 8.9----29.96-- 53.2----
2024-04-14 03:24 amNNE 5.1 9.9----29.96-- 53.4----
2024-04-14 03:18 amNNE 6.0 8.9----29.96-- 53.4----
2024-04-14 03:12 amNNW 9.9 12.0----29.96-- 53.4----
2024-04-14 03:06 amNNW 11.1 14.0----29.96-- 53.2----
2024-04-14 03:00 amNNW 13.0 15.0----29.96-0.01- 53.2----
2024-04-14 02:54 am N 12.0 14.0----29.96-- 53.1----
2024-04-14 02:48 am N 12.0 14.0----29.95-- 53.1----
2024-04-14 02:42 amNNW 14.0 15.9----29.95-- 53.1----
2024-04-14 02:36 am N 14.0 15.9----29.95- 49.1 53.2----
2024-04-14 02:30 amNNW 15.0 17.1----29.96- 49.3 53.2----
2024-04-14 02:24 amNNW 17.1 19.0----29.96- 49.3 53.4----
2024-04-14 02:18 amNNW 17.1 19.0----29.96- 49.3 53.4----
2024-04-14 02:12 amNNW 14.0 17.1----29.96- 49.1 53.4----
2024-04-14 02:06 amNNW 13.0 15.0----29.96- 49.3 53.6----
2024-04-14 02:00 am NW 13.0 14.0----29.96+0.01 49.3 54.0----
2024-04-14 01:54 am NW 12.0 14.0----29.96- 49.1 54.1----
2024-04-14 01:48 am NW 12.0 13.0----29.95- 49.1 54.1----
2024-04-14 01:42 am NW 11.1 12.0----29.96- 49.1 54.0----
2024-04-14 01:36 am NW 11.1 13.0----29.96- 49.1 54.0----
2024-04-14 01:30 amNNW 12.0 12.0----29.96- 49.1 54.0----
2024-04-14 01:24 amNNW 9.9 12.0----29.96- 49.1 54.0----
2024-04-14 01:18 amNNW 9.9 12.0----29.96- 49.1 54.0----
2024-04-14 01:12 amNNW 8.9 11.1----29.96- 49.1 54.0----
2024-04-14 01:06 am NW 8.0 9.9----29.97- 49.1 54.0----
2024-04-14 01:00 amNNW 8.9 9.9----29.97+0.00 49.3 54.0----
2024-04-14 12:54 amNNW 8.0 8.9----29.97- 49.5 54.0----
2024-04-14 12:48 amNNW 8.0 8.9----29.97- 49.3 54.0----
2024-04-14 12:42 amNNW 7.0 8.0----29.97- 49.3 54.0----
2024-04-14 12:36 amNNW 5.1 8.0----29.97- 49.3 54.0----
2024-04-14 12:30 amNNW 7.0 8.0----29.97- 49.5 54.0----
2024-04-14 12:24 amNNW 8.0 9.9----29.97- 49.5 54.0----
2024-04-14 12:18 amNNW 8.9 11.1----29.97- 49.5 54.0----
2024-04-14 12:12 amNNW 9.9 12.0----29.97- 49.5 54.0----
2024-04-14 12:06 amNNW 9.9 12.0----29.97- 49.6 53.8----
2024-04-14 12:00 amNNW 9.9 12.0----29.96+0.00 49.6 53.8----
2024-04-13 11:54 pmNNW 11.1 14.0----29.96- 49.8 53.8----
2024-04-13 11:48 pmNNW 12.0 15.0----29.96- 49.8 53.8----
2024-04-13 11:42 pm NW 11.1 14.0----29.96- 50.0 53.8----
2024-04-13 11:36 pm NW 12.0 14.0----29.96- 50.0 53.8----
2024-04-13 11:30 pm NW 12.0 14.0----29.96- 50.0 53.6----
2024-04-13 11:24 pm NW 11.1 13.0----29.96- 50.0 53.6----
2024-04-13 11:18 pm NW 11.1 13.0----29.96- 50.0 53.6----
2024-04-13 11:12 pm NW 11.1 12.0----29.95- 49.8 53.8----
2024-04-13 11:06 pm NW 8.9 9.9----29.95- 49.6 53.8----
2024-04-13 11:00 pmNNW 8.0 8.9----29.95+0.01 49.6 53.8----
2024-04-13 10:54 pmNNW 8.9 8.9----29.95- 49.6 53.8----
2024-04-13 10:48 pmNNW 7.0 8.9----29.95- 49.6 53.8----
2024-04-13 10:42 pmNNW 6.0 8.0----29.95- 49.6 53.8----
2024-04-13 10:36 pmNNW 7.0 8.9----29.95- 49.6 53.8----
2024-04-13 10:30 pmNNW 7.0 8.9----29.95- 49.6 53.8----
2024-04-13 10:24 pmNNW 8.9 9.9----29.95- 49.6 53.8----
2024-04-13 10:18 pm N 8.0 8.9----29.96- 49.5 53.8----
2024-04-13 10:12 pm N 8.0 9.9----29.96- 49.5 54.0----
2024-04-13 10:06 pm N 7.0 8.9----29.96- 49.5 54.0----
2024-04-13 10:00 pm N 5.1 8.9----29.96+0.04 49.5 54.0----
2024-04-13 09:54 pm N 8.9 12.0----29.96- 49.6 54.0----
2024-04-13 09:48 pm N 9.9 12.0----29.96- 49.5 54.0----
2024-04-13 09:42 pm N 8.0 9.9----29.97- 49.6 54.0----
2024-04-13 09:36 pm N 8.0 9.9----29.97- 49.5 54.0----
2024-04-13 09:30 pm N 8.9 12.0----29.97- 49.6 54.0----
2024-04-13 09:24 pmNNW 9.9 13.0----29.97- 49.6 54.3----
2024-04-13 09:18 pmNNW 12.0 14.0----29.97- 49.6 54.5----
2024-04-13 09:12 pm N 13.0 17.1----29.96- 49.6 54.5----
2024-04-13 09:06 pmNNW 15.0 17.1----29.96- 49.6 54.5----
2024-04-13 09:00 pmNNW 14.0 17.1----29.96+0.05 49.8 54.5----
2024-04-13 08:54 pmNNW 15.0 18.1----29.96- 49.8 54.5----
2024-04-13 08:48 pmNNW 13.0 18.1----29.96- 49.8 54.3----
2024-04-13 08:42 pmNNW 14.0 19.0----29.96- 50.0 54.3----
2024-04-13 08:36 pmNNW 13.0 15.0----29.95- 50.0 54.3----
2024-04-13 08:30 pmNNW 14.0 17.1----29.95- 50.0 54.3----
2024-04-13 08:24 pmNNW 15.0 18.1----29.94- 50.0 54.3----
2024-04-13 08:18 pmNNW 14.0 18.1----29.94- 50.0 54.1----
2024-04-13 08:12 pmNNW 18.1 20.0----29.94- 50.0 54.1----
2024-04-13 08:06 pmNNW 17.1 19.0----29.94- 50.0 54.0----
2024-04-13 08:00 pmNNW 15.0 19.0----29.93+0.02 50.2 53.8----
2024-04-13 07:54 pmNNW 17.1 20.0----29.94- 50.2 53.8----
2024-04-13 07:48 pmNNW 15.9 19.0----29.94- 50.4 53.6----
2024-04-13 07:42 pmNNW 17.1 19.0----29.93- 50.4 53.6----
2024-04-13 07:36 pmNNW 15.9 18.1----29.93- 50.4 53.6----
2024-04-13 07:30 pmNNW 15.0 18.1----29.93- 50.5 53.4----
2024-04-13 07:24 pmNNW 15.0 17.1----29.93- 50.7 53.4----
2024-04-13 07:18 pmNNW 14.0 20.0----29.93- 50.7 53.4----
2024-04-13 07:12 pmNNW 19.0 22.0----29.92- 50.7 53.4----
2024-04-13 07:06 pmNNW 21.0 22.0----29.92- 50.7 53.4----
2024-04-13 07:00 pmNNW 18.1 21.0----29.92+0.01 50.9 53.4----
2024-04-13 06:54 pmNNW 20.0 24.1----29.92- 50.9 53.4----
2024-04-13 06:48 pmNNW 21.0 24.1----29.92- 51.1 53.4----
2024-04-13 06:42 pmNNW 19.0 22.9----29.92- 51.1 53.4----
2024-04-13 06:36 pmNNW 21.0 22.9----29.92- 51.3 53.4----
2024-04-13 06:30 pmNNW 20.0 22.0----29.92- 51.3 53.4----
2024-04-13 06:24 pmNNW 18.1 25.1----29.92- 51.3 53.2----
2024-04-13 06:18 pmNNW 21.0 26.0----29.91- 50.9 53.2----
2024-04-13 06:12 pm NW 22.0 25.1----29.91- 51.1 53.2----
2024-04-13 06:06 pmNNW 22.0 24.1----29.91- 50.9 53.2----
2024-04-13 06:00 pmNNW 22.0 24.1----29.92+0.00 51.1 53.4----
2024-04-13 05:54 pmNNW 22.0 25.1----29.92- 51.1 53.4----